Location: Eastchurch
(51.4000°N, 0.8667°E)
Time: 06:15:32
(UTC+00:00)

Cosmos 1707 Rocket - Pass Details

Date: 19 January 2026
Orbit: 599 x 623 km, 82.5° (Epoch: 18 February)

Event Time Altitude Azimuth Distance (km) Brightness Sun altitude
Rises 19:03:53 0° 194° (SSW) 2,844 7.2 -24.4°
Reaches altitude 10° 19:06:06 10° 197° (SSW) 1,943 6.3 -24.7°
Maximum altitude 19:10:23 71° 281° (WNW) 638 3.6 -25.4°
Enters shadow 19:10:27 71° 290° (WNW) 639 3.6 -25.4°
